Meteo pe oră la Dabrowa

Astăzi, 15 Aprilie, Joi

Timp Temperatura Precipitaţii Vânt Presiune Umiditate
00:00 0°C° 0.4 mm 5 m/s 751 mmHg 96%
01:00 0°C° 0.4 mm 5 m/s 751 mmHg 96%
02:00 -1°C° 0.8 mm 6 m/s 751 mmHg 97%
03:00 -1°C° 0.8 mm 6 m/s 751 mmHg 97%
04:00 -2°C° 0.8 mm 6 m/s 750 mmHg 97%
05:00 0°C° 0.4 mm 5 m/s 750 mmHg 97%
06:00 0°C° 0.4 mm 5 m/s 750 mmHg 97%
07:00 0°C° 0.4 mm 5 m/s 750 mmHg 97%
08:00 +1°C° 0.5 mm 5 m/s 750 mmHg 96%
09:00 +1°C° 0.5 mm 5 m/s 750 mmHg 96%
10:00 +1°C° 0.5 mm 5 m/s 750 mmHg 96%
11:00 +1°C° 0.5 mm 5 m/s 750 mmHg 95%
12:00 +1°C° 0.5 mm 5 m/s 750 mmHg 94%
13:00 +2°C° 0.5 mm 5 m/s 750 mmHg 93%
14:00 +2°C° 0.2 mm 5 m/s 750 mmHg 92%
15:00 +2°C° 0.2 mm 5 m/s 750 mmHg 91%
16:00 +4°C° 0.2 mm 4 m/s 750 mmHg 90%
17:00 +4°C° 0 mm 4 m/s 751 mmHg 90%
18:00 +3°C° 0 mm 5 m/s 751 mmHg 90%
19:00 +3°C° 0 mm 5 m/s 751 mmHg 89%
20:00 +3°C° 0.1 mm 4 m/s 751 mmHg 90%
21:00 +3°C° 0.1 mm 4 m/s 751 mmHg 91%
22:00 +3°C° 0.1 mm 3 m/s 750 mmHg 91%
23:00 +3°C° 0.1 mm 4 m/s 750 mmHg 93%

Mâine, 16 Aprilie, Vineri

Timp Temperatura Precipitaţii Vânt Presiune Umiditate
00:00 +3°C° 0.1 mm 4 m/s 750 mmHg 95%
01:00 +1°C° 0.1 mm 4 m/s 750 mmHg 97%
02:00 +1°C° 0.1 mm 4 m/s 750 mmHg 96%
03:00 +1°C° 0.1 mm 4 m/s 749 mmHg 95%
04:00 +1°C° 0.1 mm 5 m/s 749 mmHg 94%
05:00 +1°C° 0 mm 5 m/s 749 mmHg 93%
06:00 +1°C° 0 mm 4 m/s 749 mmHg 92%
07:00 +1°C° 0 mm 4 m/s 749 mmHg 91%
08:00 +1°C° 0.1 mm 4 m/s 749 mmHg 91%
09:00 +3°C° 0.1 mm 4 m/s 749 mmHg 92%
10:00 +3°C° 0.1 mm 4 m/s 749 mmHg 92%
11:00 +3°C° 0 mm 4 m/s 750 mmHg 92%
12:00 +4°C° 0 mm 4 m/s 750 mmHg 92%
13:00 +5°C° 0 mm 4 m/s 750 mmHg 92%
14:00 +5°C° 0 mm 3 m/s 750 mmHg 92%
15:00 +7°C° 0 mm 3 m/s 750 mmHg 91%
16:00 +7°C° 0 mm 3 m/s 750 mmHg 91%
17:00 +7°C° 0 mm 3 m/s 750 mmHg 93%
18:00 +5°C° 0 mm 3 m/s 750 mmHg 94%
19:00 +5°C° 0 mm 3 m/s 751 mmHg 96%
20:00 +5°C° 0 mm 3 m/s 751 mmHg 96%
21:00 +5°C° 0 mm 3 m/s 751 mmHg 97%
22:00 +5°C° 0 mm 3 m/s 751 mmHg 97%
23:00 +5°C° 0 mm 3 m/s 750 mmHg 97%

Poimâine, 17 Aprilie, Sâmbătă

Timp Temperatura Precipitaţii Vânt Presiune Umiditate
00:00 +5°C° 0 mm 3 m/s 750 mmHg 98%
01:00 +5°C° 0 mm 3 m/s 750 mmHg 98%
02:00 +5°C° 0.1 mm 3 m/s 750 mmHg 98%
03:00 +5°C° 0.1 mm 3 m/s 750 mmHg 98%
04:00 +5°C° 0.1 mm 3 m/s 750 mmHg 98%
05:00 +5°C° 0.3 mm 3 m/s 751 mmHg 98%
06:00 +7°C° 0.3 mm 3 m/s 751 mmHg 97%
07:00 +7°C° 0.3 mm 3 m/s 751 mmHg 97%
08:00 +8°C° 0 mm 3 m/s 751 mmHg 91%
09:00 +9°C° 0 mm 3 m/s 751 mmHg 86%
10:00 +10°C° 0 mm 3 m/s 751 mmHg 80%
11:00 +10°C° 0.1 mm 3 m/s 751 mmHg 78%
12:00 +10°C° 0.1 mm 3 m/s 752 mmHg 76%
13:00 +11°C° 0.1 mm 3 m/s 752 mmHg 74%
14:00 +11°C° 0.2 mm 3 m/s 752 mmHg 73%
15:00 +11°C° 0.2 mm 3 m/s 752 mmHg 72%
16:00 +12°C° 0.2 mm 3 m/s 752 mmHg 71%
17:00 +10°C° 0.1 mm 3 m/s 752 mmHg 77%
18:00 +9°C° 0.1 mm 2 m/s 752 mmHg 83%
19:00 +8°C° 0.1 mm 2 m/s 752 mmHg 88%
20:00 +8°C° 0 mm 1 m/s 752 mmHg 89%
21:00 +8°C° 0 mm 1 m/s 752 mmHg 90%
22:00 +8°C° 0 mm 1 m/s 752 mmHg 91%
23:00 +8°C° 0.1 mm 1 m/s 752 mmHg 92%

18 Aprilie, Duminică

Timp Temperatura Precipitaţii Vânt Presiune Umiditate
00:00 +8°C° 0.1 mm 1 m/s 752 mmHg 92%
01:00 +7°C° 0.1 mm 0 m/s 752 mmHg 92%
02:00 +8°C° 0 mm 1 m/s 752 mmHg 92%
03:00 +8°C° 0 mm 1 m/s 752 mmHg 93%
04:00 +7°C° 0 mm 1 m/s 752 mmHg 93%
05:00 +7°C° 0 mm 1 m/s 752 mmHg 92%
06:00 +6°C° 0 mm 2 m/s 752 mmHg 90%
07:00 +6°C° 0 mm 2 m/s 752 mmHg 88%
08:00 +8°C° 0 mm 2 m/s 752 mmHg 81%
09:00 +9°C° 0 mm 2 m/s 752 mmHg 74%
10:00 +10°C° 0 mm 3 m/s 752 mmHg 67%
11:00 +10°C° 0 mm 3 m/s 752 mmHg 64%
12:00 +11°C° 0 mm 3 m/s 752 mmHg 61%
13:00 +11°C° 0 mm 3 m/s 752 mmHg 58%
14:00 +11°C° 0 mm 3 m/s 752 mmHg 58%
15:00 +12°C° 0 mm 3 m/s 752 mmHg 58%
16:00 +13°C° 0 mm 2 m/s 752 mmHg 57%
17:00 +12°C° 0 mm 2 m/s 752 mmHg 61%
18:00 +10°C° 0 mm 2 m/s 752 mmHg 65%
19:00 +9°C° 0 mm 2 m/s 753 mmHg 69%
20:00 +9°C° 0 mm 2 m/s 753 mmHg 70%
21:00 +9°C° 0 mm 2 m/s 753 mmHg 70%
22:00 +8°C° 0 mm 2 m/s 753 mmHg 71%
23:00 +8°C° 0 mm 2 m/s 752 mmHg 72%

19 Aprilie, Luni

Timp Temperatura Precipitaţii Vânt Presiune Umiditate
00:00 +8°C° 0 mm 2 m/s 752 mmHg 74%
01:00 +8°C° 0 mm 2 m/s 752 mmHg 75%
02:00 +7°C° 0 mm 2 m/s 752 mmHg 76%
03:00 +7°C° 0 mm 2 m/s 752 mmHg 77%
04:00 +6°C° 0 mm 2 m/s 752 mmHg 78%
05:00 +7°C° 0 mm 2 m/s 751 mmHg 75%
06:00 +8°C° 0 mm 3 m/s 751 mmHg 72%
07:00 +9°C° 0 mm 3 m/s 751 mmHg 69%
08:00 +10°C° 0.1 mm 3 m/s 751 mmHg 66%
09:00 +11°C° 0.1 mm 4 m/s 751 mmHg 63%
10:00 +12°C° 0.1 mm 4 m/s 750 mmHg 60%
11:00 +13°C° 0.1 mm 5 m/s 750 mmHg 59%
12:00 +13°C° 0.1 mm 5 m/s 750 mmHg 59%
13:00 +13°C° 0.1 mm 5 m/s 749 mmHg 59%
14:00 +13°C° 0.2 mm 4 m/s 749 mmHg 63%
15:00 +12°C° 0.2 mm 4 m/s 749 mmHg 66%
16:00 +12°C° 0.2 mm 3 m/s 748 mmHg 70%
17:00 +11°C° 0.2 mm 3 m/s 748 mmHg 76%
18:00 +10°C° 0.2 mm 3 m/s 748 mmHg 82%
19:00 +10°C° 0.2 mm 3 m/s 748 mmHg 88%
20:00 +9°C° 0.1 mm 3 m/s 747 mmHg 90%
21:00 +9°C° 0.1 mm 3 m/s 747 mmHg 92%
22:00 +8°C° 0.1 mm 3 m/s 746 mmHg 94%
23:00 +8°C° 0 mm 3 m/s 746 mmHg 94%

20 Aprilie, Marţi

Timp Temperatura Precipitaţii Vânt Presiune Umiditate
00:00 +8°C° 0 mm 3 m/s 746 mmHg 95%
01:00 +8°C° 0 mm 3 m/s 745 mmHg 95%
02:00 +8°C° 0.1 mm 3 m/s 745 mmHg 95%
03:00 +8°C° 0.1 mm 3 m/s 745 mmHg 95%
04:00 +7°C° 0.1 mm 4 m/s 744 mmHg 95%
05:00 +7°C° 0.1 mm 4 m/s 744 mmHg 94%
06:00 +7°C° 0.1 mm 4 m/s 744 mmHg 94%
07:00 +7°C° 0.1 mm 4 m/s 743 mmHg 94%
08:00 +7°C° 0.1 mm 4 m/s 743 mmHg 93%
09:00 +7°C° 0.1 mm 4 m/s 742 mmHg 92%
10:00 +7°C° 0.1 mm 4 m/s 742 mmHg 91%
11:00 +7°C° 0.1 mm 4 m/s 742 mmHg 91%
12:00 +7°C° 0.1 mm 4 m/s 742 mmHg 91%
13:00 +7°C° 0.1 mm 4 m/s 741 mmHg 91%
14:00 +6°C° 0.2 mm 4 m/s 741 mmHg 91%
15:00 +6°C° 0.2 mm 4 m/s 741 mmHg 91%
16:00 +6°C° 0.2 mm 4 m/s 740 mmHg 92%
17:00 +6°C° 0.2 mm 4 m/s 740 mmHg 92%
18:00 +5°C° 0.2 mm 4 m/s 740 mmHg 93%
19:00 +5°C° 0.2 mm 4 m/s 740 mmHg 93%
20:00 +5°C° 0.1 mm 4 m/s 739 mmHg 94%
21:00 +4°C° 0.1 mm 4 m/s 739 mmHg 94%
22:00 +4°C° 0.1 mm 3 m/s 739 mmHg 94%
23:00 +4°C° 0.3 mm 3 m/s 739 mmHg 95%
Arată mai mult

Formular de consimțământ

Meteoprog și furnizorii noștri de servicii pot stoca și accesa date personale, precum cookies, identificatori de dispozitiv sau alte tehnologii similare pe dispozitivul dumneavoastră și procesa astfel de date pentru a personaliza conținutul și reclamele, dar și pentru a oferi caracteristici de social media și pentru a analiza traficul.

  • Stocarea și/sau accesarea informațiilor pe dispozitivul dumneavoastră

    Cookies, identificatori de dispozitiv sau alte informații pot fi stocate sau accesate pe dispozitiv în scopurile indicate mai sus.

  • Reclame și conținut personalizat, evaluarea reclamelor și a conținutului, informații despre audiențe și dezvoltarea produselor

    Reclamele și conținutul pot fi personalizate pe baza unui profil. Pot fi adăugate date suplimentare pentru a personaliza mai bine reclamele și conținutul. Performanța reclamelor și conținutului poate fi măsurată. Pot fi obținute informații despre utilizatorii care au văzut reclamele și conținutul. Aceste date pot fi utilizate pentru a dezvolta sau îmbunătăți experiența utilizatorilor, sistemele și software-ul.

Dând clic pe ‘Sunt de acord’, permiteți utilizarea cookie-urilor menționate, a identificatorilor de dispozitiv, balizelor web sau altor tehnologii similare. Setările pot fi modificate din browser-ul dispozitivului dumneavoastră.

În anumite scopuri, interesele legitime pot prima asupra consimțământului. Puteți citi mai multe informații în acest sens în Politica privind Confidențialitatea Datelor și Cookie.